Total_Precipitation_Accumulation
0.20 0.22 0.22 0.22 0.20 0.16 0.18 0.17 0.12 0.09 0.05 0.01 0.01 0.00 0.01 0.02 0.03 0.05 0.07 0.20 0.27 0.20 0.05 0.10 0.04 0.00 0.00 0.00 0.00 0.00 0.01 0.02 0.05 0.04 0.01 0.01 0.00 0.00 0.00 0.00 0.00 0.00 0.00 0.00 0.00 0.00 0.00 0.00 0.00 0.00 0.00 0.00 0.00 0.00
0.16 0.18 0.18 0.19 0.16 0.15 0.18 0.15 0.09 0.06 0.02 0.01 0.01 0.01 0.02 0.03 0.03 0.04 0.06 0.17 0.28 0.30 0.08 0.06 0.02 0.00 0.00 0.00 0.00 0.00 0.00 0.00 0.02 0.02 0.01 0.02 0.00 0.00 0.00 0.00 0.00 0.00 0.00 0.00 0.00 0.00 0.00 0.00 0.00 0.00 0.00 0.00 0.00 0.00
0.06 0.08 0.11 0.11 0.10 0.12 0.13 0.09 0.05 0.03 0.02 0.02 0.02 0.03 0.04 0.04 0.04 0.05 0.09 0.16 0.25 0.18 0.08 0.04 0.04 0.01 0.00 0.00 0.00 0.00 0.01 0.02 0.04 0.04 0.05 0.02 0.01 0.00 0.00 0.00 0.00 0.00 0.00 0.00 0.00 0.00 0.00 0.00 0.00 0.00 0.00 0.00 0.00 0.00
0.01 0.01 0.01 0.02 0.03 0.03 0.03 0.04 0.04 0.03 0.03 0.02 0.03 0.04 0.05 0.05 0.05 0.06 0.09 0.21 0.20 0.13 0.18 0.13 0.07 0.05 0.03 0.00 0.00 0.01 0.02 0.02 0.05 0.09 0.06 0.03 0.01 0.00 0.00 0.00 0.00 0.00 0.00 0.00 0.00 0.00 0.00 0.00 0.00 0.00 0.00 0.00 0.00 0.00
0.01 0.01 0.01 0.01 0.01 0.00 0.01 0.02 0.03 0.04 0.04 0.04 0.05 0.06 0.07 0.07 0.08 0.10 0.10 0.23 0.18 0.15 0.12 0.11 0.08 0.10 0.07 0.02 0.01 0.00 0.03 0.03 0.08 0.10 0.05 0.02 0.01 0.01 0.00 0.00 0.00 0.00 0.00 0.00 0.00 0.00 0.00 0.00 0.00 0.00 0.00 0.00 0.00 0.00
0.00 0.00 0.00 0.01 0.01 0.01 0.02 0.02 0.03 0.06 0.04 0.05 0.08 0.10 0.11 0.09 0.09 0.15 0.16 0.20 0.19 0.16 0.21 0.13 0.12 0.08 0.09 0.11 0.05 0.03 0.02 0.04 0.06 0.05 0.02 0.02 0.01 0.00 0.00 0.00 0.00 0.00 0.00 0.00 0.00 0.00 0.00 0.00 0.00 0.00 0.00 0.00 0.00 0.00
0.00 0.00 0.00 0.00 0.01 0.02 0.01 0.02 0.04 0.06 0.06 0.10 0.10 0.10 0.09 0.06 0.07 0.12 0.14 0.11 0.03 0.11 0.19 0.16 0.36 0.17 0.12 0.14 0.13 0.30 0.09 0.06 0.06 0.06 0.02 0.00 0.00 0.00 0.00 0.00 0.00 0.00 0.00 0.00 0.00 0.00 0.00 0.00 0.00 0.00 0.00 0.00 0.00 0.00
0.00 0.00 0.00 0.00 0.00 0.01 0.01 0.02 0.04 0.07 0.14 0.09 0.10 0.09 0.08 0.08 0.08 0.05 0.18 0.37 0.06 0.08 0.17 0.11 0.34 0.35 0.21 0.15 0.12 0.30 0.31 0.12 0.08 0.06 0.05 0.02 0.01 0.00 0.00 0.00 0.00 0.00 0.00 0.00 0.00 0.00 0.00 0.00 0.00 0.00 0.00 0.00 0.00 0.00
0.00 0.00 0.00 0.00 0.00 0.00 0.01 0.03 0.05 0.10 0.06 0.11 0.12 0.13 0.17 0.12 0.10 0.07 0.39 0.70 0.45 0.27 0.23 0.05 0.08 0.40 0.38 0.31 0.12 0.10 0.30 0.28 0.19 0.09 0.04 0.06 0.07 0.02 0.00 0.00 0.00 0.00 0.00 0.00 0.00 0.00 0.00 0.00 0.00 0.00 0.00 0.00 0.00 0.00
0.00 0.00 0.00 0.00 0.00 0.01 0.01 0.02 0.04 0.06 0.09 0.16 0.30 0.24 0.17 0.15 0.24 0.40 0.69 0.83 0.64 0.43 0.32 0.13 0.05 0.14 0.29 0.48 0.35 0.10 0.14 0.22 0.28 0.26 0.13 0.05 0.03 0.04 0.01 0.00 0.00 0.00 0.00 0.00 0.00 0.00 0.00 0.00 0.00 0.00 0.00 0.00 0.00 0.00
0.00 0.00 0.00 0.00 0.00 0.00 0.00 0.02 0.04 0.04 0.16 0.26 0.20 0.23 0.24 0.39 0.57 0.72 0.74 0.52 0.34 0.17 0.12 0.19 0.15 0.07 0.13 0.28 0.46 0.20 0.15 0.12 0.10 0.16 0.19 0.20 0.05 0.00 0.00 0.00 0.00 0.01 0.00 0.00 0.00 0.00 0.00 0.00 0.00 0.00 0.00 0.00 0.00 0.00
0.01 0.00 0.00 0.00 0.00 0.00 0.00 0.03 0.04 0.10 0.19 0.27 0.34 0.32 0.47 0.75 0.66 0.56 0.42 0.27 0.12 0.04 0.02 0.07 0.22 0.18 0.07 0.13 0.33 0.33 0.08 0.12 0.05 0.03 0.07 0.10 0.04 0.00 0.00 0.00 0.00 0.00 0.00 0.00 0.00 0.00 0.00 0.00 0.00 0.00 0.00 0.00 0.00 0.00
0.02 0.01 0.01 0.00 0.00 0.00 0.03 0.09 0.17 0.36 0.58 0.50 0.28 0.47 0.46 0.38 0.34 0.31 0.19 0.08 0.03 0.01 0.01 0.01 0.02 0.13 0.07 0.03 0.10 0.15 0.10 0.04 0.03 0.02 0.01 0.00 0.00 0.00 0.00 0.00 0.00 0.00 0.00 0.01 0.02 0.03 0.03 0.03 0.03 0.02 0.01 0.00 0.00 0.00
0.02 0.01 0.01 0.01 0.02 0.08 0.16 0.24 0.48 0.70 0.62 0.37 0.42 0.36 0.26 0.20 0.15 0.14 0.08 0.02 0.01 0.01 0.01 0.01 0.00 0.00 0.02 0.02 0.11 0.06 0.04 0.02 0.02 0.01 0.00 0.00 0.00 0.00 0.00 0.00 0.00 0.01 0.01 0.01 0.01 0.02 0.04 0.05 0.05 0.04 0.01 0.00 0.00 0.00
0.06 0.08 0.09 0.13 0.15 0.18 0.22 0.31 0.51 0.40 0.21 0.24 0.29 0.18 0.10 0.08 0.09 0.08 0.05 0.02 0.02 0.02 0.01 0.01 0.03 0.01 0.03 0.09 0.11 0.10 0.07 0.04 0.02 0.01 0.00 0.00 0.00 0.00 0.00 0.01 0.02 0.04 0.07 0.10 0.11 0.09 0.06 0.04 0.02 0.02 0.01 0.00 0.00 0.00
0.13 0.13 0.16 0.21 0.19 0.20 0.33 0.43 0.37 0.16 0.05 0.04 0.09 0.07 0.03 0.02 0.03 0.02 0.02 0.02 0.02 0.02 0.01 0.02 0.06 0.03 0.07 0.02 0.02 0.06 0.06 0.04 0.04 0.03 0.02 0.01 0.02 0.05 0.07 0.10 0.12 0.12 0.09 0.07 0.07 0.04 0.02 0.01 0.01 0.01 0.00 0.00 0.00 0.00
0.06 0.06 0.15 0.14 0.15 0.17 0.17 0.15 0.08 0.00 0.00 0.04 0.10 0.08 0.04 0.03 0.05 0.05 0.05 0.04 0.02 0.01 0.02 0.01 0.03 0.06 0.04 0.01 0.02 0.04 0.08 0.10 0.11 0.09 0.07 0.08 0.11 0.14 0.16 0.18 0.15 0.09 0.06 0.04 0.03 0.02 0.01 0.00 0.00 0.00 0.00 0.00 0.00 0.00
0.07 0.04 0.05 0.06 0.03 0.01 0.01 0.01 0.00 0.00 0.04 0.09 0.11 0.14 0.08 0.07 0.06 0.08 0.09 0.06 0.03 0.04 0.03 0.05 0.04 0.04 0.04 0.04 0.06 0.11 0.18 0.22 0.21 0.15 0.12 0.13 0.15 0.15 0.16 0.15 0.15 0.10 0.05 0.03 0.01 0.01 0.01 0.00 0.00 0.00 0.00 0.00 0.00 0.00
0.06 0.04 0.04 0.03 0.03 0.06 0.04 0.01 0.00 0.02 0.09 0.11 0.11 0.08 0.05 0.08 0.10 0.11 0.11 0.10 0.06 0.02 0.02 0.04 0.05 0.07 0.11 0.14 0.17 0.20 0.22 0.18 0.12 0.07 0.10 0.14 0.16 0.17 0.18 0.17 0.15 0.11 0.05 0.03 0.02 0.02 0.03 0.04 0.03 0.02 0.01 0.01 0.01 0.00
0.00 0.00 0.00 0.01 0.02 0.04 0.04 0.00 0.00 0.01 0.07 0.12 0.10 0.02 0.01 0.01 0.01 0.00 0.00 0.00 0.00 0.00 0.02 0.06 0.13 0.16 0.18 0.20 0.20 0.18 0.15 0.12 0.11 0.05 0.06 0.10 0.13 0.12 0.13 0.12 0.11 0.10 0.08 0.09 0.09 0.08 0.07 0.06 0.07 0.04 0.02 0.02 0.01 0.00
0.00 0.00 0.00 0.00 0.00 0.00 0.00 0.00 0.01 0.02 0.03 0.05 0.07 0.01 0.00 0.00 0.00 0.00 0.00 0.00 0.00 0.03 0.10 0.16 0.17 0.18 0.17 0.17 0.16 0.16 0.16 0.13 0.12 0.08 0.07 0.08 0.11 0.09 0.11 0.12 0.10 0.09 0.08 0.09 0.08 0.09 0.07 0.07 0.07 0.05 0.03 0.02 0.01 0.01
0.00 0.00 0.00 0.00 0.00 0.00 0.00 0.00 0.01 0.00 0.00 0.00 0.00 0.00 0.00 0.00 0.00 0.00 0.00 0.00 0.04 0.10 0.10 0.11 0.10 0.09 0.07 0.07 0.08 0.07 0.09 0.07 0.07 0.07 0.09 0.09 0.10 0.12 0.14 0.16 0.12 0.11 0.10 0.10 0.09 0.08 0.07 0.06 0.04 0.02 0.01 0.00 0.00 0.00
0.00 0.00 0.00 0.00 0.00 0.00 0.00 0.00 0.00 0.00 0.00 0.00 0.00 0.00 0.00 0.00 0.00 0.00 0.00 0.02 0.06 0.11 0.09 0.03 0.03 0.02 0.02 0.03 0.01 0.01 0.01 0.01 0.02 0.04 0.05 0.05 0.06 0.06 0.06 0.06 0.05 0.04 0.04 0.05 0.04 0.03 0.02 0.01 0.00 0.00 0.00 0.00 0.00 0.00
0.00 0.00 0.00 0.00 0.00 0.00 0.00 0.00 0.00 0.00 0.00 0.00 0.00 0.00 0.02 0.01 0.00 0.00 0.01 0.02 0.07 0.06 0.03 0.03 0.01 0.00 0.00 0.00 0.00 0.01 0.01 0.00 0.00 0.01 0.01 0.00 0.01 0.02 0.01 0.01 0.01 0.01 0.01 0.01 0.00 0.00 0.00 0.00 0.00 0.00 0.00 0.00 0.00 0.00
0.00 0.00 0.00 0.00 0.00 0.00 0.00 0.00 0.00 0.00 0.00 0.00 0.00 0.01 0.02 0.00 0.00 0.00 0.01 0.03 0.03 0.03 0.03 0.02 0.01 0.00 0.00 0.01 0.01 0.01 0.01 0.00 0.00 0.00 0.02 0.01 0.01 0.00 0.00 0.00 0.00 0.00 0.00 0.00 0.00 0.00 0.00 0.00 0.00 0.00 0.00 0.00 0.00 0.00
0.00 0.00 0.00 0.00 0.00 0.00 0.00 0.00 0.00 0.00 0.00 0.00 0.01 0.02 0.01 0.00 0.00 0.01 0.02 0.03 0.02 0.03 0.03 0.02 0.01 0.00 0.00 0.00 0.00 0.01 0.01 0.00 0.00 0.00 0.01 0.00 0.00 0.00 0.00 0.00 0.00 0.00 0.00 0.00 0.00 0.00 0.00 0.00 0.00 0.00 0.00 0.00 0.00 0.00
0.00 0.00 0.00 0.01 0.00 0.00 0.00 0.00 0.00 0.00 0.00 0.01 0.01 0.01 0.01 0.00 0.01 0.03 0.04 0.03 0.02 0.04 0.03 0.02 0.01 0.00 0.01 0.01 0.01 0.01 0.00 0.00 0.00 0.00 0.00 0.00 0.00 0.00 0.00 0.00 0.00 0.01 0.00 0.00 0.00 0.00 0.00 0.00 0.00 0.00 0.00 0.00 0.00 0.00
0.00 0.00 0.00 0.00 0.00 0.00 0.00 0.00 0.00 0.01 0.01 0.01 0.01 0.00 0.00 0.00 0.02 0.04 0.05 0.07 0.04 0.02 0.01 0.00 0.00 0.00 0.00 0.00 0.01 0.01 0.01 0.00 0.00 0.00 0.00 0.00 0.00 0.00 0.00 0.00 0.00 0.00 0.00 0.00 0.00 0.00 0.00 0.01 0.01 0.00 0.00 0.00 0.00 0.00
0.00 0.00 0.00 0.00 0.00 0.00 0.01 0.01 0.01 0.01 0.01 0.01 0.00 0.01 0.01 0.02 0.04 0.04 0.06 0.06 0.03 0.01 0.01 0.00 0.01 0.00 0.00 0.00 0.00 0.00 0.00 0.00 0.00 0.00 0.00 0.00 0.00 0.00 0.00 0.00 0.00 0.00 0.00 0.00 0.00 0.00 0.01 0.01 0.00 0.00 0.00 0.00 0.00 0.00
0.00 0.00 0.00 0.00 0.00 0.01 0.01 0.00 0.00 0.00 0.00 0.00 0.00 0.01 0.01 0.03 0.05 0.04 0.02 0.01 0.00 0.01 0.01 0.00 0.00 0.00 0.00 0.00 0.00 0.00 0.00 0.00 0.00 0.00 0.00 0.00 0.00 0.00 0.00 0.00 0.00 0.00 0.00 0.00 0.00 0.00 0.00 0.00 0.00 0.00 0.00 0.00 0.00 0.00
0.00 0.00 0.00 0.00 0.01 0.03 0.03 0.01 0.00 0.00 0.00 0.00 0.00 0.00 0.01 0.02 0.02 0.01 0.01 0.01 0.00 0.00 0.00 0.00 0.00 0.00 0.00 0.00 0.00 0.00 0.00 0.00 0.00 0.00 0.00 0.00 0.00 0.00 0.00 0.00 0.00 0.00 0.00 0.00 0.00 0.00 0.00 0.00 0.00 0.00 0.00 0.00 0.00 0.00
0.00 0.00 0.00 0.00 0.02 0.03 0.03 0.03 0.02 0.00 0.00 0.00 0.00 0.00 0.01 0.00 0.00 0.01 0.01 0.00 0.00 0.00 0.00 0.00 0.00 0.00 0.00 0.00 0.00 0.00 0.00 0.00 0.00 0.00 0.00 0.00 0.00 0.00 0.00 0.00 0.00 0.00 0.00 0.00 0.00 0.00 0.00 0.00 0.00 0.00 0.00 0.00 0.00 0.00
0.00 0.00 0.00 0.00 0.01 0.01 0.01 0.01 0.02 0.01 0.01 0.01 0.01 0.01 0.01 0.00 0.00 0.01 0.01 0.00 0.00 0.00 0.00 0.00 0.00 0.00 0.00 0.00 0.00 0.00 0.00 0.00 0.00 0.00 0.00 0.00 0.00 0.00 0.00 0.00 0.00 0.00 0.00 0.00 0.00 0.00 0.00 0.00 0.00 0.00 0.00 0.00 0.00 0.00